KC5TIL Weather Reports


time (UTC)temp
C
wind
direction
speed
KPH
gust
KPH
rain 1hr
cm
rain 24hr
cm
rain mn
cm
humidity
%
barometer
mb
20260506144710 12 334 1.6 4.8 0.00 0.00 0.00 84 1018.3
20260506144207 12 62 1.6 8.0 0.00 0.00 0.00 84 1017.8
20260506143705 12 287 4.8 8.0 0.00 0.00 0.00 82 1017.9
20260506143202 12 62 1.6 4.8 0.00 0.00 0.00 82 1018.0
20260506142701 12 42 3.2 9.7 0.00 0.00 0.00 82 1016.6
20260506142158 12 62 6.4 11.3 0.00 0.00 0.00 82 1015.7
20260506141656 12 18 6.4 16.1 0.00 0.00 0.00 82 1016.2
20260506141154 12 356 11.3 16.1 0.00 0.00 0.00 82 1016.1
20260506140651 12 335 4.8 16.1 0.00 0.00 0.00 82 1016.5
20260506140148 12 301 4.8 12.9 0.00 0.00 0.00 82 1016.7
20260506135645 12 330 4.8 14.5 0.00 0.00 0.00 82 1016.2
20260506135141 12 355 8.0 16.1 0.00 0.00 0.00 82 1016.4
20260506134638 12 322 6.4 12.9 0.00 0.00 0.00 82 1016.2
20260506134133 12 13 6.4 17.7 0.00 0.00 0.00 82 1015.8
20260506133631 12 3 6.4 20.9 0.00 0.00 0.00 82 1015.8
20260506133128 12 28 8.0 20.9 0.00 0.00 0.00 81 1015.8
20260506132626 12 0 4.8 14.5 0.00 0.00 0.00 81 1015.6
20260506132122 12 86 1.6 14.5 0.00 0.00 0.00 80 1015.4
20260506131620 12 274 4.8 12.9 0.00 0.00 0.00 79 1015.6
20260506131116 12 5 1.6 11.3 0.00 0.00 0.00 79 1015.3
20260506130613 12 306 11.3 14.5 0.00 0.00 0.00 78 1015.3
20260506130110 12 213 4.8 16.1 0.00 0.00 0.00 78 1015.0
20260506125609 12 122 0.0 11.3 0.00 0.00 0.00 78 1014.9
20260506125106 12 81 14.5 17.7 0.00 0.00 0.00 78 1015.2
20260506124603 12 20 4.8 11.3 0.00 0.00 0.00 77 1014.9
20260506124101 12 286 12.9 14.5 0.00 0.00 0.00 77 1015.0
20260506123558 12 121 6.4 16.1 0.00 0.00 0.00 76 1014.8
20260506123057 13 2 9.7 17.7 0.00 0.00 0.00 76 1014.9
20260506122553 13 317 9.7 20.9 0.00 0.00 0.00 75 1014.7
20260506122052 13 306 9.7 14.5 0.00 0.00 0.00 75 1014.6
20260506121549 13 11 4.8 11.3 0.00 0.00 0.00 76 1014.4
20260506121044 13 301 1.6 11.3 0.00 0.00 0.00 76 1014.4
20260506120543 13 56 3.2 11.3 0.00 0.00 0.00 76 1014.2
20260506120040 13 11 9.7 14.5 0.00 0.00 0.00 76 1014.6
20260506115538 13 330 8.0 12.9 0.00 0.00 0.00 76 1014.3
20260506115036 13 54 3.2 11.3 0.00 0.00 0.00 76 1014.5
20260506114533 13 304 8.0 11.3 0.00 0.00 0.00 76 1014.4
20260506114032 13 10 1.6 12.9 0.00 0.00 0.00 75 1014.2
20260506113529 13 302 9.7 16.1 0.00 0.00 0.00 75 1014.1
20260506113026 13 355 9.7 17.7 0.00 0.00 0.00 75 1014.1
20260506112522 13 47 9.7 12.9 0.00 0.00 0.00 75 1013.9
20260506112020 13 72 3.2 11.3 0.00 0.00 0.00 75 1013.6
20260506111518 14 36 6.4 9.7 0.00 0.00 0.00 75 1013.6
20260506111015 14 253 6.4 11.3 0.00 0.00 0.00 75 1013.2
20260506110513 14 342 4.8 9.7 0.00 0.00 0.00 74 1013.5
20260506110010 14 129 1.6 16.1 0.00 0.00 0.00 75 1013.7
20260506105505 14 49 8.0 12.9 0.00 0.00 0.00 75 1013.4
20260506105003 14 340 4.8 11.3 0.00 0.00 0.00 75 1013.4
20260506104501 14 312 6.4 11.3 0.00 0.00 0.00 75 1013.2
20260506103959 14 317 8.0 12.9 0.00 0.00 0.00 75 1013.3
20260506103455 14 295 8.0 16.1 0.00 0.00 0.00 75 1013.2
20260506102952 15 347 6.4 11.3 0.00 0.00 0.00 75 1013.0
20260506102450 15 319 11.3 12.9 0.00 0.00 0.00 75 1012.7
20260506101948 15 309 9.7 14.5 0.00 0.00 0.00 76 1012.7
20260506101444 15 330 4.8 9.7 0.00 0.00 0.00 76 1012.4
20260506100941 15 10 8.0 11.3 0.00 0.00 0.00 75 1012.3
20260506100439 15 9 4.8 11.3 0.00 0.00 0.00 75 1012.3
20260506095937 15 304 4.8 8.0 0.00 0.00 0.00 75 1012.3
20260506095435 15 313 4.8 11.3 0.00 0.00 0.00 75 1012.3
20260506094931 15 9 9.7 14.5 0.00 0.00 0.00 75 1012.0
20260506094430 15 326 4.8 8.0 0.00 0.00 0.00 75 1012.3
20260506093927 15 336 9.7 12.9 0.00 0.00 0.00 75 1012.0
20260506093425 15 297 4.8 11.3 0.00 0.00 0.00 75 1012.0
20260506092923 15 295 4.8 9.7 0.00 0.00 0.00 75 1012.1
20260506092421 15 313 3.2 11.3 0.00 0.00 0.00 75 1012.0
20260506091917 15 355 4.8 12.9 0.00 0.00 0.00 75 1011.9
20260506091415 15 346 6.4 12.9 0.00 0.00 0.00 75 1012.0
20260506090912 16 247 4.8 8.0 0.00 0.00 0.00 75 1012.0
20260506090409 15 358 3.2 8.0 0.00 0.00 0.00 76 1011.8
20260506085906 16 1 3.2 12.9 0.00 0.00 0.00 76 1011.9
20260506085403 16 306 8.0 11.3 0.00 0.00 0.00 76 1011.6
20260506084859 16 291 6.4 11.3 0.00 0.00 0.00 76 1011.9
20260506084356 16 0 6.4 9.7 0.00 0.00 0.00 76 1011.7
20260506083852 16 32 1.6 8.0 0.00 0.00 0.00 76 1011.7
20260506083350 16 79 4.8 4.8 0.00 0.00 0.00 77 1011.6
20260506082847 16 336 3.2 8.0 0.00 0.00 0.00 77 1011.5
20260506082344 16 285 3.2 9.7 0.00 0.00 0.00 77 1011.5
20260506081839 16 90 1.6 8.0 0.00 0.00 0.00 77 1011.6
20260506081338 16 202 1.6 4.8 0.00 0.00 0.00 77 1011.5
20260506080835 16 101 1.6 8.0 0.00 0.00 0.00 77 1011.3
20260506080331 16 269 3.2 8.0 0.00 0.00 0.00 77 1011.3
20260506073316 16 99 1.6 9.7 0.00 0.00 0.00 78 1011.2
20260506072812 16 75 4.8 4.8 0.00 0.00 0.00 78 1011.1
20260506072310 16 70 3.2 8.0 0.00 0.00 0.00 78 1011.3
20260506071808 16 44 3.2 8.0 0.00 0.00 0.00 78 1011.3
20260506071306 16 26 1.6 8.0 0.00 0.00 0.00 78 1011.0
20260506070802 16 28 6.4 11.3 0.00 0.00 0.00 77 1011.2
20260506070259 16 101 4.8 8.0 0.00 0.00 0.00 77 1011.3
20260506062236 17 203 3.2 8.0 0.00 0.00 0.00 77 1011.0
20260506061726 17 345 8.0 11.3 0.00 0.00 0.00 77 1011.3
20260506061224 17 264 9.7 12.9 0.00 0.00 0.00 77 1011.2
20260506060723 17 69 4.8 8.0 0.00 0.00 0.00 77 1011.1
20260506060219 17 258 4.8 14.5 0.00 0.00 0.00 77 1011.0
20260506051145 18 18 9.7 14.5 0.00 0.00 0.00 76 1011.4
20260506050644 18 21 4.8 12.9 0.00 0.00 0.00 76 1011.3
20260506050140 18 306 9.7 12.9 0.00 0.00 0.00 76 1011.2
20260506045133 18 115 0.0 12.9 0.00 0.00 0.00 76 1010.8
20260506044631 18 257 4.8 11.3 0.00 0.00 0.00 75 1011.0
20260506044128 18 67 0.0 9.7 0.00 0.00 0.00 75 1010.9
20260506043625 18 348 8.0 12.9 0.00 0.00 0.00 75 1011.1
20260506043123 18 346 4.8 11.3 0.00 0.00 0.00 75 1011.2
20260506042622 19 28 11.3 14.5 0.00 0.00 0.00 74 1011.2
20260506042120 19 218 6.4 16.1 0.00 0.00 0.00 74 1011.1
20260506041618 20 0 6.4 14.5 0.00 0.00 0.00 73 1011.1
20260506041114 20 318 6.4 9.7 0.00 0.00 0.00 74 1010.8
20260506040612 20 291 9.7 17.7 0.00 0.00 0.00 74 1010.7
20260506040109 20 294 9.7 11.3 0.00 0.00 0.00 73 1010.9
20260506035606 20 353 11.3 14.5 0.00 0.00 0.00 73 1010.6
20260506035102 20 285 6.4 12.9 0.00 0.00 0.00 73 1010.2
20260506034600 20 244 1.6 8.0 0.00 0.00 0.00 73 1010.1
20260506034056 20 18 4.8 11.3 0.00 0.00 0.00 72 1010.0
20260506033554 21 319 8.0 12.9 0.00 0.00 0.00 71 1010.1
20260506033050 21 274 3.2 9.7 0.00 0.00 0.00 71 1010.0
20260506032548 21 356 6.4 20.9 0.00 0.00 0.00 70 1009.8
20260506032045 21 353 4.8 4.8 0.00 0.00 0.00 70 1009.5
20260506031542 21 308 4.8 16.1 0.00 0.00 0.00 70 1009.5
20260506031039 21 87 3.2 14.5 0.00 0.00 0.00 69 1009.5
20260506030537 21 345 3.2 11.3 0.00 0.00 0.00 70 1009.5
20260506030034 21 27 8.0 12.9 0.00 0.00 0.00 70 1009.2
20260506025531 21 345 4.8 14.5 0.00 0.00 0.00 70 1009.4
20260506025027 21 10 3.2 11.3 0.00 0.00 0.00 70 1009.4
20260506024524 21 343 4.8 12.9 0.00 0.00 0.00 70 1009.3
20260506024020 21 316 8.0 16.1 0.00 0.00 0.00 70 1009.1
20260506023516 22 349 11.3 16.1 0.00 0.00 0.00 69 1008.9
20260506023015 22 293 12.9 17.7 0.00 0.00 0.00 69 1008.8
20260506022512 22 341 11.3 17.7 0.00 0.00 0.00 68 1008.8
20260506022009 22 58 3.2 12.9 0.00 0.00 0.00 68 1008.4
20260506021506 22 264 8.0 17.7 0.00 0.00 0.00 68 1008.3
20260506021004 22 348 4.8 8.0 0.00 0.00 0.00 68 1008.1
20260506020501 22 334 6.4 16.1 0.00 0.00 0.00 68 1007.9
20260506015957 23 299 9.7 16.1 0.00 0.00 0.00 67 1007.9
20260506015455 23 9 4.8 9.7 0.00 0.00 0.00 67 1007.4
20260506014952 23 33 3.2 8.0 0.00 0.00 0.00 67 1007.4
20260506014449 23 43 4.8 12.9 0.00 0.00 0.00 67 1007.4
20260506013945 23 354 6.4 11.3 0.00 0.00 0.00 67 1007.0
20260506013444 23 307 3.2 12.9 0.00 0.00 0.00 67 1007.0
20260506012939 24 351 6.4 12.9 0.00 0.00 0.00 67 1007.1
20260506012436 24 332 3.2 11.3 0.00 0.00 0.00 66 1006.8
20260506011933 25 312 6.4 12.9 0.00 0.00 0.00 66 1006.6
20260506011431 25 54 4.8 11.3 0.00 0.00 0.00 65 1006.6
20260506010927 25 350 6.4 14.5 0.00 0.00 0.00 64 1006.7
20260506010426 25 355 3.2 8.0 0.00 0.00 0.00 63 1006.7
20260506005922 25 62 4.8 9.7 0.00 0.00 0.00 62 1006.5
20260506005420 26 23 6.4 8.0 0.00 0.00 0.00 62 1006.3
20260506004915 26 336 8.0 14.5 0.00 0.00 0.00 62 1006.3
20260506004413 26 2 1.6 8.0 0.00 0.00 0.00 62 1006.2
20260506003909 26 83 1.6 4.8 0.00 0.00 0.00 62 1006.1
20260506003405 26 313 3.2 11.3 0.00 0.00 0.00 61 1005.9
20260506002902 26 335 8.0 9.7 0.00 0.00 0.00 61 1006.0
20260506002358 26 9 4.8 11.3 0.00 0.00 0.00 61 1006.1
20260506001854 26 322 4.8 11.3 0.00 0.00 0.00 60 1006.0
20260506001351 27 25 6.4 16.1 0.00 0.00 0.00 59 1005.9
20260506000848 27 274 4.8 9.7 0.00 0.00 0.00 59 1006.0
20260506000346 27 311 3.2 11.3 0.00 0.00 0.00 58 1005.9
20260505235842 27 252 4.8 4.8 0.00 0.00 0.00 58 1005.9
20260505235340 27 252 4.8 9.7 0.00 0.00 0.00 57 1005.9
20260505234836 27 357 4.8 9.7 0.00 0.00 0.00 57 1005.6
20260505234335 28 24 11.3 14.5 0.00 0.00 0.00 57 1005.6
20260505233831 28 11 4.8 14.5 0.00 0.00 0.00 57 1005.5
20260505233329 28 7 4.8 14.5 0.00 0.00 0.00 57 1005.3
20260505232826 29 295 9.7 17.7 0.00 0.00 0.00 56 1005.4
20260505232324 30 13 4.8 11.3 0.00 0.00 0.00 52 1005.2
20260505231820 30 277 8.0 9.7 0.00 0.00 0.00 50 1005.3
20260505231318 30 273 4.8 8.0 0.00 0.00 0.00 49 1005.0
20260505230816 31 123 1.6 3.2 0.00 0.00 0.00 50 1005.0
20260505230313 31 273 4.8 9.7 0.00 0.00 0.00 49 1004.8
20260505225809 31 353 8.0 11.3 0.00 0.00 0.00 48 1004.8
20260505225307 31 264 3.2 9.7 0.00 0.00 0.00 47 1004.7
20260505224802 31 18 4.8 12.9 0.00 0.00 0.00 47 1004.6
20260505224300 33 301 6.4 11.3 0.00 0.00 0.00 46 1004.3
20260505223757 33 126 0.0 4.8 0.00 0.00 0.00 48 1004.4
20260505223254 34 126 0.0 1.6 0.00 0.00 0.00 45 1004.4
20260505222749 34 145 0.0 4.8 0.00 0.00 0.00 43 1004.5
20260505222246 35 168 1.6 3.2 0.00 0.00 0.00 43 1004.3
20260505221743 35 179 1.6 3.2 0.00 0.00 0.00 44 1004.3
20260505221240 35 207 1.6 8.0 0.00 0.00 0.00 44 1004.3
20260505220736 34 177 1.6 3.2 0.00 0.00 0.00 44 1004.1
20260505220234 33 188 1.6 4.8 0.00 0.00 0.00 45 1004.4
20260505215732 34 166 0.0 1.6 0.00 0.00 0.00 44 1004.1
20260505215229 33 149 1.6 4.8 0.00 0.00 0.00 46 1004.1
20260505214727 33 335 1.6 11.3 0.00 0.00 0.00 45 1004.2
20260505214224 33 158 1.6 3.2 0.00 0.00 0.00 44 1004.2
20260505213721 33 148 1.6 11.3 0.00 0.00 0.00 45 1004.4
20260505213219 33 144 1.6 4.8 0.00 0.00 0.00 45 1004.4
20260505212714 33 133 0.0 1.6 0.00 0.00 0.00 47 1004.3
20260505212212 33 92 1.6 1.6 0.00 0.00 0.00 47 1004.4
20260505211708 33 112 1.6 3.2 0.00 0.00 0.00 46 1004.5
20260505211206 33 134 1.6 9.7 0.00 0.00 0.00 45 1004.6
20260505210702 33 192 1.6 3.2 0.00 0.00 0.00 45 1004.7
20260505210159 33 154 1.6 3.2 0.00 0.00 0.00 47 1004.7
20260505205657 33 143 1.6 1.6 0.00 0.00 0.00 47 1004.9
20260505205155 33 111 1.6 8.0 0.00 0.00 0.00 48 1005.0
20260505204651 33 251 4.8 9.7 0.00 0.00 0.00 48 1005.3
20260505204149 33 128 1.6 1.6 0.00 0.00 0.00 52 1005.0
20260505203646 33 224 3.2 4.8 0.00 0.00 0.00 50 1004.9
20260505203142 33 158 1.6 3.2 0.00 0.00 0.00 51 1005.0
20260505202638 32 180 1.6 4.8 0.00 0.00 0.00 51 1005.2
20260505202134 32 184 3.2 4.8 0.00 0.00 0.00 52 1005.4
20260505201625 32 160 1.6 4.8 0.00 0.00 0.00 53 1005.5
20260505201118 32 189 3.2 4.8 0.00 0.00 0.00 54 1005.5
20260505200615 32 116 1.6 3.2 0.00 0.00 0.00 54 1005.4
20260505200112 32 147 3.2 3.2 0.00 0.00 0.00 55 1005.2
20260505195608 32 203 3.2 4.8 0.00 0.00 0.00 54 1005.6
20260505195106 32 225 1.6 3.2 0.00 0.00 0.00 53 1005.4
20260505194602 32 186 3.2 4.8 0.00 0.00 0.00 54 1005.5
20260505194052 32 122 1.6 9.7 0.00 0.00 0.00 54 1005.6
20260505193550 32 162 4.8 9.7 0.00 0.00 0.00 53 1005.5
20260505193046 31 215 3.2 8.0 0.00 0.00 0.00 55 1005.6
20260505192545 31 260 4.8 8.0 0.00 0.00 0.00 56 1005.7
20260505192042 31 239 4.8 8.0 0.00 0.00 0.00 55 1005.4
20260505191540 31 217 3.2 4.8 0.00 0.00 0.00 56 1005.5
20260505191038 31 165 1.6 4.8 0.00 0.00 0.00 57 1005.6
20260505190532 31 201 3.2 4.8 0.00 0.00 0.00 57 1005.5
20260505190029 31 172 1.6 8.0 0.00 0.00 0.00 57 1005.6
20260505185526 31 111 0.0 9.7 0.00 0.00 0.00 59 1005.7
20260505185022 31 129 3.2 9.7 0.00 0.00 0.00 58 1005.9
20260505184519 31 191 4.8 8.0 0.00 0.00 0.00 58 1005.6
20260505184016 31 132 4.8 4.8 0.00 0.00 0.00 59 1005.9
20260505183513 30 259 4.8 9.7 0.00 0.00 0.00 61 1006.0
20260505183010 30 192 3.2 9.7 0.00 0.00 0.00 62 1005.8
20260505182506 30 283 4.8 8.0 0.00 0.00 0.00 61 1005.9
20260505182003 30 220 4.8 11.3 0.00 0.00 0.00 60 1005.8
20260505181500 30 136 1.6 8.0 0.00 0.00 0.00 62 1005.9
20260505180956 30 155 3.2 4.8 0.00 0.00 0.00 62 1006.0
20260505180452 30 170 3.2 9.7 0.00 0.00 0.00 63 1006.1
20260505175950 30 115 4.8 8.0 0.00 0.00 0.00 62 1006.1
20260505175445 30 185 4.8 8.0 0.00 0.00 0.00 63 1006.1
20260505174942 29 181 3.2 4.8 0.00 0.00 0.00 63 1006.1
20260505174440 29 228 4.8 11.3 0.00 0.00 0.00 64 1006.3
20260505173936 30 113 4.8 8.0 0.00 0.00 0.00 63 1006.2
20260505173432 30 165 3.2 8.0 0.00 0.00 0.00 63 1006.1
20260505172929 29 216 3.2 8.0 0.00 0.00 0.00 64 1006.2
20260505172428 28 189 3.2 8.0 0.00 0.00 0.00 66 1006.2
20260505171926 28 152 3.2 9.7 0.00 0.00 0.00 67 1006.2
20260505171424 28 180 1.6 4.8 0.00 0.00 0.00 67 1006.3
20260505170920 28 219 3.2 8.0 0.00 0.00 0.00 67 1006.3
20260505170417 28 88 1.6 8.0 0.00 0.00 0.00 66 1006.3
20260505165912 28 158 3.2 8.0 0.00 0.00 0.00 65 1006.3
20260505165409 28 213 4.8 8.0 0.00 0.00 0.00 65 1006.5
20260505164904 28 126 1.6 4.8 0.00 0.00 0.00 66 1006.4
20260505164401 28 198 3.2 4.8 0.00 0.00 0.00 66 1006.4
20260505163859 28 201 3.2 4.8 0.00 0.00 0.00 67 1006.4
20260505163358 28 188 4.8 8.0 0.00 0.00 0.00 68 1006.2
20260505162856 28 196 3.2 11.3 0.00 0.00 0.00 68 1005.8
20260505162352 28 208 8.0 12.9 0.00 0.00 0.00 67 1005.8
20260505161849 28 170 3.2 4.8 0.00 0.00 0.00 67 1005.9
20260505161346 27 165 3.2 16.1 0.00 0.00 0.00 69 1005.8
20260505160843 27 246 4.8 11.3 0.00 0.00 0.00 70 1006.0
20260505160341 27 168 4.8 8.0 0.00 0.00 0.00 71 1006.0